Location: Key Biscayne
(25.6930°N, 80.1630°W)
Time: 12:14:29
(UTC-04:00)

CZ-2D R/B - Visible Passes

Search period start: 29 May 2015 00:00
Search period end: 08 June 2015 00:00
Orbit: 529 x 548 km, 97.6° (Epoch: 28 May)

Date Brightness Start Highest point End Pass type
(mag) Time Alt. Az. Time Alt. Az. Time Alt. Az.
29 May 4.0 21:15:55 10° S 21:19:39 53° W 21:23:24 10° NNW visible
30 May 3.5 21:08:02 10° S 21:11:51 70° W 21:15:40 10° NNW visible
31 May 3.2 21:00:13 10° SSE 21:04:03 88° E 21:07:53 10° N visible
01 Jun 3.2 20:52:27 10° SSE 20:56:15 66° ENE 21:00:03 10° N visible
02 Jun 3.5 20:44:46 10° SSE 20:48:28 50° ENE 20:52:10 10° N visible
03 Jun 3.9 20:37:07 10° SE 20:40:40 38° ENE 20:44:15 10° N visible
04 Jun 4.2 20:29:33 10° SE 20:32:52 29° ENE 20:36:15 10° NNE visible
04 Jun 6.2 22:06:16 10° WSW 22:07:30 11° W 22:08:28 10° WNW visible
05 Jun 6.0 21:57:24 10° SW 21:59:37 14° W 22:01:38 10° WNW visible
06 Jun 5.8 21:48:58 10° SW 21:51:44 18° W 21:54:22 10° NW visible
07 Jun 5.4 21:40:42 10° SSW 21:43:51 23° W 21:46:54 10° NW visible
